| time (UTC) | temp F | wind direction | speed MPH | gust MPH | rain 1hr in | rain 24hr in | rain mn in | humidity % | barometer mb |
| 20260906025021 | 60 | 0 | 0.0 | 0.0 | 0.00 | 0.20 | 0.01 | 76 | 1016.3 |
| 20260906024537 | 61 | 0 | 0.0 | 0.0 | 0.00 | 0.20 | 0.01 | 76 | 1016.2 |
| 20260906024018 | 61 | 0 | 0.0 | 0.0 | 0.00 | 0.20 | 0.01 | 75 | 1016.2 |
| 20260906023521 | 61 | 0 | 0.0 | 0.0 | 0.00 | 0.20 | 0.01 | 75 | 1016.2 |
| 20260906023041 | 62 | 0 | 0.0 | 2.0 | 0.00 | 0.20 | 0.01 | 75 | 1016.2 |
| 20260906022520 | 62 | 0 | 0.0 | 2.0 | 0.00 | 0.20 | 0.01 | 74 | 1016.1 |
| 20260906022021 | 63 | 219 | 0.0 | 1.0 | 0.00 | 0.20 | 0.01 | 74 | 1016.1 |
| 20260906021538 | 63 | 0 | 0.0 | 0.0 | 0.00 | 0.20 | 0.01 | 73 | 1016.1 |
| 20260906021020 | 64 | 0 | 0.0 | 0.0 | 0.00 | 0.20 | 0.01 | 73 | 1016.2 |
| 20260906020520 | 64 | 0 | 0.0 | 0.0 | 0.00 | 0.20 | 0.01 | 72 | 1016.1 |
| 20260906020036 | 65 | 0 | 0.0 | 0.0 | 0.00 | 0.20 | 0.01 | 72 | 1016.2 |
| 20260906015522 | 65 | 0 | 0.0 | 0.0 | 0.00 | 0.20 | 0.01 | 71 | 1016.1 |
| 20260906015018 | 65 | 0 | 0.0 | 0.0 | 0.00 | 0.20 | 0.01 | 70 | 1016.2 |
| 20260906014546 | 66 | 0 | 0.0 | 0.0 | 0.00 | 0.20 | 0.01 | 69 | 1016.2 |
| 20260906014020 | 66 | 0 | 0.0 | 0.0 | 0.00 | 0.20 | 0.01 | 69 | 1016.1 |
| 20260906013526 | 66 | 0 | 0.0 | 0.0 | 0.00 | 0.20 | 0.01 | 68 | 1016.2 |
| 20260906013041 | 67 | 0 | 0.0 | 0.0 | 0.00 | 0.20 | 0.01 | 67 | 1016.1 |
| 20260906012518 | 67 | 0 | 0.0 | 0.0 | 0.00 | 0.20 | 0.01 | 68 | 1016.1 |
| 20260906012018 | 67 | 0 | 0.0 | 0.0 | 0.00 | 0.20 | 0.01 | 69 | 1016.1 |
| 20260906011553 | 68 | 0 | 0.0 | 0.0 | 0.00 | 0.20 | 0.01 | 69 | 1016.1 |
| 20260906011020 | 68 | 0 | 0.0 | 0.0 | 0.00 | 0.20 | 0.01 | 68 | 1016.1 |
| 20260906010524 | 68 | 0 | 0.0 | 0.0 | 0.00 | 0.20 | 0.01 | 68 | 1016.1 |
| 20260906010101 | 68 | 0 | 0.0 | 0.0 | 0.00 | 0.20 | 0.01 | 68 | 1016.1 |
| 20260906005520 | 68 | 0 | 0.0 | 1.0 | 0.00 | 0.20 | 0.01 | 68 | 1016.0 |
| 20260906005022 | 69 | 0 | 0.0 | 1.0 | 0.00 | 0.20 | 0.01 | 69 | 1015.9 |
| 20260906004546 | 69 | 0 | 0.0 | 0.0 | 0.00 | 0.20 | 0.01 | 67 | 1016.0 |
| 20260906004024 | 69 | 0 | 0.0 | 2.0 | 0.00 | 0.20 | 0.01 | 67 | 1015.9 |
| 20260906003521 | 69 | 0 | 0.0 | 2.0 | 0.00 | 0.20 | 0.01 | 65 | 1016.0 |
| 20260906003042 | 69 | 219 | 0.0 | 2.0 | 0.00 | 0.20 | 0.01 | 64 | 1016.0 |
| 20260906002521 | 69 | 0 | 0.0 | 0.0 | 0.00 | 0.20 | 0.01 | 69 | 1015.9 |
| 20260906002021 | 69 | 0 | 0.0 | 2.0 | 0.00 | 0.20 | 0.01 | 66 | 1015.9 |
| 20260906001557 | 69 | 0 | 0.0 | 2.0 | 0.00 | 0.20 | 0.01 | 65 | 1016.0 |
| 20260906001027 | 69 | 219 | 0.0 | 1.0 | 0.00 | 0.20 | 0.01 | 65 | 1016.0 |
| 20260906000522 | 69 | 0 | 0.0 | 0.0 | 0.00 | 0.20 | 0.01 | 67 | 1016.0 |
| 20260906000041 | 69 | 0 | 0.0 | 0.0 | 0.00 | 0.20 | 0.01 | 66 | 1016.0 |
| 20260905235520 | 69 | 0 | 0.0 | 2.0 | 0.00 | 0.20 | 0.01 | 66 | 1015.9 |
| 20260905235024 | 69 | 0 | 0.0 | 2.0 | 0.00 | 0.20 | 0.01 | 66 | 1015.9 |
| 20260905234539 | 70 | 0 | 0.0 | 2.0 | 0.00 | 0.20 | 0.01 | 66 | 1016.0 |
| 20260905234021 | 70 | 0 | 0.0 | 2.0 | 0.00 | 0.20 | 0.01 | 66 | 1015.9 |
| 20260905233521 | 70 | 0 | 0.0 | 2.0 | 0.00 | 0.20 | 0.01 | 66 | 1015.9 |
| 20260905233036 | 70 | 219 | 0.0 | 2.0 | 0.00 | 0.20 | 0.01 | 66 | 1015.9 |
| 20260905232524 | 71 | 0 | 0.0 | 2.0 | 0.00 | 0.20 | 0.01 | 64 | 1016.0 |
| 20260905232022 | 71 | 0 | 0.0 | 2.0 | 0.00 | 0.20 | 0.01 | 61 | 1015.8 |
| 20260905231542 | 72 | 163 | 0.0 | 2.0 | 0.00 | 0.20 | 0.01 | 61 | 1015.9 |
| 20260905231020 | 72 | 76 | 1.0 | 2.0 | 0.00 | 0.20 | 0.01 | 61 | 1015.8 |
| 20260905230520 | 73 | 0 | 0.0 | 2.0 | 0.00 | 0.20 | 0.01 | 58 | 1015.8 |
| 20260905230048 | 73 | 5 | 0.0 | 2.0 | 0.00 | 0.20 | 0.01 | 59 | 1015.8 |
| 20260905225520 | 73 | 5 | 0.0 | 2.0 | 0.00 | 0.20 | 0.01 | 54 | 1015.9 |
| 20260905225021 | 73 | 0 | 0.0 | 2.0 | 0.00 | 0.20 | 0.01 | 58 | 1015.9 |
| 20260905224543 | 72 | 260 | 0.0 | 2.0 | 0.00 | 0.20 | 0.01 | 61 | 1015.8 |
| 20260905224021 | 72 | 0 | 0.0 | 2.0 | 0.00 | 0.20 | 0.01 | 61 | 1015.9 |
| 20260905223520 | 71 | 0 | 0.0 | 2.0 | 0.00 | 0.20 | 0.01 | 57 | 1015.9 |
| 20260905223041 | 72 | 217 | 0.0 | 2.0 | 0.00 | 0.20 | 0.01 | 59 | 1015.9 |
| 20260905222521 | 72 | 0 | 0.0 | 2.0 | 0.00 | 0.20 | 0.01 | 59 | 1015.9 |
| 20260905222020 | 72 | 217 | 0.0 | 3.0 | 0.00 | 0.20 | 0.01 | 60 | 1015.9 |
| 20260905221550 | 72 | 198 | 1.0 | 3.0 | 0.00 | 0.20 | 0.01 | 55 | 1016.0 |
| 20260905221022 | 72 | 177 | 0.0 | 2.0 | 0.00 | 0.20 | 0.01 | 56 | 1016.1 |
| 20260905220520 | 72 | 79 | 0.0 | 3.0 | 0.00 | 0.20 | 0.01 | 61 | 1016.2 |
| 20260905220045 | 71 | 232 | 1.0 | 3.0 | 0.00 | 0.20 | 0.01 | 62 | 1016.2 |
| 20260905215521 | 71 | 65 | 1.0 | 2.0 | 0.00 | 0.20 | 0.01 | 62 | 1016.4 |
| 20260905215016 | 71 | 0 | 1.0 | 2.0 | 0.00 | 0.20 | 0.01 | 61 | 1016.4 |
| 20260905214537 | 71 | 330 | 0.0 | 3.0 | 0.00 | 0.20 | 0.01 | 65 | 1016.4 |
| 20260905214021 | 70 | 0 | 0.0 | 3.0 | 0.00 | 0.20 | 0.01 | 64 | 1016.4 |
| 20260905213521 | 70 | 27 | 0.0 | 3.0 | 0.00 | 0.20 | 0.01 | 67 | 1016.5 |
| 20260905213042 | 69 | 213 | 2.0 | 3.0 | 0.00 | 0.20 | 0.01 | 64 | 1016.6 |
| 20260905212521 | 69 | 238 | 0.0 | 1.0 | 0.00 | 0.20 | 0.01 | 69 | 1016.6 |
| 20260905212020 | 68 | 0 | 0.0 | 1.0 | 0.00 | 0.20 | 0.01 | 66 | 1016.7 |
| 20260905211546 | 68 | 0 | 0.0 | 1.0 | 0.00 | 0.20 | 0.01 | 67 | 1016.8 |
| 20260905211020 | 69 | 0 | 0.0 | 2.0 | 0.00 | 0.20 | 0.01 | 65 | 1016.7 |
| 20260905210520 | 69 | 0 | 0.0 | 2.0 | 0.00 | 0.20 | 0.01 | 67 | 1016.8 |
| 20260905210038 | 69 | 14 | 0.0 | 2.0 | 0.00 | 0.20 | 0.01 | 66 | 1016.9 |
| 20260905205521 | 68 | 0 | 0.0 | 2.0 | 0.00 | 0.20 | 0.01 | 70 | 1016.9 |
| 20260905205021 | 68 | 0 | 0.0 | 6.0 | 0.00 | 0.20 | 0.01 | 68 | 1017.0 |
| 20260905204543 | 68 | 180 | 1.0 | 6.0 | 0.00 | 0.20 | 0.01 | 67 | 1017.1 |
| 20260905204020 | 67 | 242 | 0.0 | 4.0 | 0.00 | 0.20 | 0.01 | 69 | 1017.2 |
| 20260905203519 | 67 | 286 | 2.0 | 4.0 | 0.00 | 0.20 | 0.01 | 68 | 1017.3 |
| 20260905203051 | 67 | 352 | 1.0 | 2.0 | 0.00 | 0.20 | 0.01 | 71 | 1017.1 |
| 20260905202523 | 66 | 342 | 1.0 | 3.0 | 0.00 | 0.20 | 0.01 | 71 | 1017.3 |
| 20260905202024 | 66 | 0 | 2.0 | 4.0 | 0.00 | 0.20 | 0.01 | 71 | 1017.4 |
| 20260905201553 | 66 | 317 | 1.0 | 4.0 | 0.00 | 0.20 | 0.01 | 71 | 1017.5 |
| 20260905201020 | 65 | 317 | 1.0 | 3.0 | 0.00 | 0.20 | 0.01 | 73 | 1017.5 |
| 20260905200521 | 65 | 279 | 0.0 | 2.0 | 0.00 | 0.20 | 0.01 | 74 | 1017.5 |
| 20260905200037 | 64 | 134 | 0.0 | 3.0 | 0.00 | 0.20 | 0.01 | 76 | 1017.6 |
| 20260905195522 | 63 | 0 | 0.0 | 4.0 | 0.00 | 0.20 | 0.01 | 80 | 1017.6 |
| 20260905195026 | 62 | 242 | 1.0 | 4.0 | 0.00 | 0.20 | 0.01 | 82 | 1017.6 |
| 20260905194536 | 61 | 241 | 0.0 | 3.0 | 0.00 | 0.20 | 0.01 | 82 | 1017.8 |
| 20260905194016 | 60 | 0 | 0.0 | 2.0 | 0.00 | 0.20 | 0.01 | 84 | 1017.8 |
| 20260905193515 | 60 | 0 | 0.0 | 2.0 | 0.00 | 0.20 | 0.01 | 84 | 1017.9 |
| 20260905193039 | 59 | 231 | 1.0 | 2.0 | 0.00 | 0.20 | 0.01 | 86 | 1017.9 |
| 20260905192522 | 59 | 0 | 0.0 | 0.0 | 0.00 | 0.20 | 0.01 | 87 | 1017.9 |
| 20260905192021 | 58 | 0 | 0.0 | 0.0 | 0.00 | 0.20 | 0.01 | 87 | 1017.9 |
| 20260905191538 | 58 | 0 | 0.0 | 0.0 | 0.00 | 0.20 | 0.01 | 88 | 1018.0 |
| 20260905191021 | 58 | 0 | 0.0 | 0.0 | 0.00 | 0.20 | 0.01 | 89 | 1018.0 |
| 20260905190517 | 58 | 0 | 0.0 | 0.0 | 0.00 | 0.20 | 0.01 | 89 | 1018.0 |
| 20260905190036 | 58 | 0 | 0.0 | 0.0 | 0.00 | 0.20 | 0.01 | 90 | 1018.1 |
| 20260905185522 | 58 | 0 | 0.0 | 0.0 | 0.00 | 0.20 | 0.01 | 90 | 1018.2 |
| 20260905185019 | 58 | 0 | 0.0 | 0.0 | 0.00 | 0.20 | 0.01 | 90 | 1018.1 |
| 20260905184545 | 58 | 0 | 0.0 | 0.0 | 0.00 | 0.20 | 0.01 | 90 | 1018.3 |
| 20260905184016 | 58 | 0 | 0.0 | 0.0 | 0.00 | 0.20 | 0.01 | 90 | 1018.2 |
| 20260905183518 | 57 | 0 | 0.0 | 0.0 | 0.00 | 0.20 | 0.01 | 90 | 1018.3 |
| 20260905183043 | 57 | 0 | 0.0 | 0.0 | 0.00 | 0.20 | 0.01 | 90 | 1018.4 |
| 20260905182524 | 57 | 0 | 0.0 | 0.0 | 0.00 | 0.20 | 0.01 | 90 | 1018.3 |
| 20260905182026 | 57 | 0 | 0.0 | 0.0 | 0.01 | 0.20 | 0.01 | 90 | 1018.3 |
| 20260905181538 | 57 | 0 | 0.0 | 0.0 | 0.01 | 0.20 | 0.01 | 90 | 1018.3 |
| 20260905181020 | 56 | 0 | 0.0 | 0.0 | 0.01 | 0.20 | 0.01 | 90 | 1018.4 |
| 20260905180521 | 56 | 0 | 0.0 | 0.0 | 0.01 | 0.20 | 0.01 | 90 | 1018.4 |
| 20260905180040 | 56 | 0 | 0.0 | 2.0 | 0.01 | 0.20 | 0.01 | 90 | 1018.4 |
| 20260905175517 | 55 | 0 | 0.0 | 2.0 | 0.01 | 0.20 | 0.01 | 90 | 1018.5 |
| 20260905175019 | 55 | 292 | 0.0 | 2.0 | 0.01 | 0.20 | 0.01 | 90 | 1018.5 |
| 20260905174537 | 55 | 0 | 0.0 | 2.0 | 0.01 | 0.20 | 0.01 | 90 | 1018.4 |
| 20260905174018 | 55 | 0 | 0.0 | 2.0 | 0.01 | 0.20 | 0.01 | 90 | 1018.4 |
| 20260905173518 | 55 | 0 | 0.0 | 2.0 | 0.01 | 0.20 | 0.01 | 90 | 1018.4 |
| 20260905173038 | 54 | 0 | 0.0 | 2.0 | 0.01 | 0.20 | 0.01 | 90 | 1018.3 |
| 20260905172521 | 54 | 0 | 0.0 | 0.0 | 0.01 | 0.20 | 0.01 | 90 | 1018.3 |
| 20260905172021 | 54 | 0 | 0.0 | 0.0 | 0.00 | 0.19 | 0.00 | 90 | 1018.4 |
| 20260905171536 | 54 | 0 | 0.0 | 0.0 | 0.00 | 0.19 | 0.00 | 90 | 1018.4 |
| 20260905171020 | 54 | 0 | 0.0 | 0.0 | 0.00 | 0.19 | 0.00 | 90 | 1018.4 |
| 20260905170517 | 54 | 0 | 0.0 | 0.0 | 0.00 | 0.19 | 0.00 | 90 | 1018.3 |
| 20260905170037 | 54 | 0 | 0.0 | 0.0 | 0.00 | 0.19 | 0.00 | 90 | 1018.3 |
| 20260905165518 | 54 | 0 | 0.0 | 0.0 | 0.00 | 0.19 | 0.00 | 90 | 1018.3 |
| 20260905165019 | 54 | 0 | 0.0 | 0.0 | 0.00 | 0.19 | 0.00 | 90 | 1018.3 |
| 20260905164539 | 53 | 0 | 0.0 | 0.0 | 0.00 | 0.19 | 0.00 | 90 | 1018.2 |
| 20260905164021 | 53 | 0 | 0.0 | 0.0 | 0.00 | 0.19 | 0.00 | 90 | 1018.2 |
| 20260905163528 | 53 | 0 | 0.0 | 0.0 | 0.00 | 0.19 | 0.00 | 90 | 1018.2 |
| 20260905163043 | 53 | 0 | 0.0 | 0.0 | 0.00 | 0.19 | 0.00 | 90 | 1018.1 |
| 20260905162522 | 53 | 0 | 0.0 | 0.0 | 0.00 | 0.19 | 0.00 | 90 | 1018.1 |
| 20260905162021 | 53 | 0 | 0.0 | 0.0 | 0.00 | 0.19 | 0.00 | 90 | 1017.9 |
| 20260905161538 | 53 | 0 | 0.0 | 0.0 | 0.00 | 0.19 | 0.00 | 90 | 1018.0 |
| 20260905161026 | 52 | 0 | 0.0 | 0.0 | 0.00 | 0.19 | 0.00 | 90 | 1018.0 |
| 20260905160525 | 52 | 0 | 0.0 | 0.0 | 0.00 | 0.19 | 0.00 | 90 | 1017.9 |
| 20260905160040 | 52 | 0 | 0.0 | 0.0 | 0.00 | 0.19 | 0.00 | 90 | 1017.9 |
| 20260905155522 | 52 | 0 | 0.0 | 0.0 | 0.00 | 0.19 | 0.00 | 90 | 1017.9 |
| 20260905155019 | 52 | 0 | 0.0 | 0.0 | 0.00 | 0.19 | 0.00 | 90 | 1017.9 |
| 20260905154539 | 51 | 0 | 0.0 | 0.0 | 0.00 | 0.19 | 0.00 | 90 | 1017.9 |
| 20260905154019 | 51 | 0 | 0.0 | 0.0 | 0.00 | 0.19 | 0.00 | 90 | 1017.9 |
| 20260905153521 | 51 | 0 | 0.0 | 0.0 | 0.00 | 0.19 | 0.00 | 90 | 1017.8 |
| 20260905153038 | 51 | 0 | 0.0 | 0.0 | 0.00 | 0.19 | 0.00 | 90 | 1017.9 |
| 20260905152520 | 50 | 0 | 0.0 | 0.0 | 0.00 | 0.19 | 0.00 | 90 | 1017.9 |
| 20260905152020 | 50 | 0 | 0.0 | 0.0 | 0.00 | 0.19 | 0.00 | 90 | 1017.9 |
| 20260905151538 | 50 | 0 | 0.0 | 0.0 | 0.00 | 0.19 | 0.00 | 90 | 1017.7 |
| 20260905151019 | 50 | 0 | 0.0 | 0.0 | 0.00 | 0.19 | 0.00 | 90 | 1017.7 |
| 20260905150519 | 49 | 0 | 0.0 | 0.0 | 0.00 | 0.19 | 0.00 | 90 | 1017.7 |
| 20260905150039 | 49 | 0 | 0.0 | 0.0 | 0.00 | 0.19 | 0.00 | 90 | 1017.8 |
| 20260905145521 | 49 | 0 | 0.0 | 0.0 | 0.00 | 0.19 | 0.00 | 90 | 1017.6 |
| 20260905145018 | 49 | 0 | 0.0 | 0.0 | 0.00 | 0.19 | 0.00 | 90 | 1017.7 |
| 20260905144541 | 49 | 0 | 0.0 | 0.0 | 0.00 | 0.19 | 0.00 | 90 | 1017.8 |
| 20260905144020 | 49 | 0 | 0.0 | 0.0 | 0.00 | 0.19 | 0.00 | 90 | 1017.7 |
| 20260905143524 | 49 | 0 | 0.0 | 0.0 | 0.00 | 0.19 | 0.00 | 90 | 1017.7 |
| 20260905143037 | 48 | 0 | 0.0 | 0.0 | 0.00 | 0.19 | 0.00 | 90 | 1017.7 |
| 20260905142521 | 48 | 0 | 0.0 | 0.0 | 0.00 | 0.19 | 0.00 | 90 | 1017.7 |
| 20260905142021 | 48 | 0 | 0.0 | 0.0 | 0.00 | 0.19 | 0.00 | 90 | 1017.7 |
| 20260905141538 | 48 | 0 | 0.0 | 0.0 | 0.00 | 0.19 | 0.00 | 90 | 1017.7 |
| 20260905141020 | 48 | 0 | 0.0 | 0.0 | 0.00 | 0.19 | 0.00 | 90 | 1017.6 |
| 20260905140521 | 48 | 0 | 0.0 | 0.0 | 0.00 | 0.19 | 0.00 | 90 | 1017.6 |
| 20260905140047 | 48 | 0 | 0.0 | 0.0 | 0.00 | 0.19 | 0.00 | 90 | 1017.6 |
| 20260905135521 | 47 | 0 | 0.0 | 0.0 | 0.00 | 0.19 | 0.00 | 90 | 1017.5 |
| 20260905135021 | 47 | 0 | 0.0 | 0.0 | 0.00 | 0.19 | 0.00 | 89 | 1017.4 |
| 20260905134546 | 47 | 0 | 0.0 | 0.0 | 0.00 | 0.19 | 0.00 | 89 | 1017.4 |
| 20260905134020 | 47 | 0 | 0.0 | 0.0 | 0.00 | 0.19 | 0.00 | 89 | 1017.3 |
| 20260905133520 | 47 | 0 | 0.0 | 0.0 | 0.00 | 0.19 | 0.00 | 89 | 1017.3 |
| 20260905133035 | 47 | 0 | 0.0 | 0.0 | 0.00 | 0.19 | 0.00 | 89 | 1017.3 |
| 20260905132520 | 47 | 0 | 0.0 | 0.0 | 0.00 | 0.19 | 0.00 | 89 | 1017.3 |
| 20260905132021 | 47 | 0 | 0.0 | 0.0 | 0.00 | 0.19 | 0.00 | 89 | 1017.3 |
| 20260905131540 | 48 | 0 | 0.0 | 0.0 | 0.00 | 0.19 | 0.00 | 89 | 1017.2 |
| 20260905131024 | 48 | 0 | 0.0 | 0.0 | 0.00 | 0.19 | 0.00 | 89 | 1017.1 |
| 20260905130521 | 48 | 0 | 0.0 | 0.0 | 0.00 | 0.19 | 0.00 | 89 | 1017.2 |
| 20260905130043 | 48 | 0 | 0.0 | 0.0 | 0.00 | 0.19 | 0.00 | 89 | 1017.1 |
| 20260905125521 | 48 | 0 | 0.0 | 0.0 | 0.00 | 0.19 | 0.00 | 89 | 1017.1 |
| 20260905125020 | 48 | 0 | 0.0 | 0.0 | 0.00 | 0.19 | 0.00 | 89 | 1017.1 |
| 20260905124541 | 48 | 0 | 0.0 | 0.0 | 0.00 | 0.19 | 0.00 | 89 | 1017.1 |
| 20260905124017 | 48 | 0 | 0.0 | 0.0 | 0.00 | 0.19 | 0.00 | 89 | 1017.1 |
| 20260905123517 | 47 | 0 | 0.0 | 0.0 | 0.00 | 0.19 | 0.00 | 89 | 1017.1 |
| 20260905123038 | 47 | 0 | 0.0 | 0.0 | 0.00 | 0.19 | 0.00 | 89 | 1017.1 |
| 20260905122519 | 47 | 0 | 0.0 | 0.0 | 0.00 | 0.19 | 0.00 | 89 | 1017.1 |
| 20260905122021 | 47 | 0 | 0.0 | 0.0 | 0.00 | 0.19 | 0.00 | 89 | 1017.0 |
| 20260905121542 | 47 | 0 | 0.0 | 0.0 | 0.00 | 0.19 | 0.00 | 89 | 1017.0 |
| 20260905121026 | 47 | 0 | 0.0 | 0.0 | 0.00 | 0.19 | 0.00 | 89 | 1017.0 |
| 20260905120520 | 47 | 0 | 0.0 | 0.0 | 0.00 | 0.19 | 0.00 | 89 | 1017.0 |
| 20260905120041 | 47 | 0 | 0.0 | 0.0 | 0.00 | 0.19 | 0.00 | 89 | 1017.0 |
| 20260905115525 | 47 | 0 | 0.0 | 0.0 | 0.00 | 0.19 | 0.00 | 89 | 1016.8 |
| 20260905115021 | 47 | 0 | 0.0 | 0.0 | 0.00 | 0.19 | 0.00 | 89 | 1016.9 |
| 20260905114545 | 47 | 0 | 0.0 | 0.0 | 0.00 | 0.19 | 0.00 | 89 | 1016.8 |
| 20260905114020 | 47 | 0 | 0.0 | 0.0 | 0.00 | 0.19 | 0.00 | 89 | 1016.9 |
| 20260905113517 | 47 | 0 | 0.0 | 0.0 | 0.00 | 0.19 | 0.00 | 89 | 1016.9 |
| 20260905113038 | 48 | 0 | 0.0 | 0.0 | 0.00 | 0.19 | 0.00 | 89 | 1016.8 |
| 20260905112519 | 48 | 0 | 0.0 | 0.0 | 0.00 | 0.19 | 0.00 | 89 | 1016.9 |
| 20260905112018 | 48 | 0 | 0.0 | 0.0 | 0.00 | 0.19 | 0.00 | 89 | 1016.8 |
| 20260905111542 | 48 | 0 | 0.0 | 0.0 | 0.00 | 0.19 | 0.00 | 89 | 1016.7 |
| 20260905111021 | 48 | 0 | 0.0 | 0.0 | 0.00 | 0.19 | 0.00 | 89 | 1016.8 |
| 20260905110520 | 48 | 0 | 0.0 | 0.0 | 0.00 | 0.19 | 0.00 | 89 | 1016.8 |
| 20260905110043 | 48 | 0 | 0.0 | 0.0 | 0.00 | 0.19 | 0.00 | 89 | 1016.8 |
| 20260905105521 | 48 | 0 | 0.0 | 0.0 | 0.00 | 0.19 | 0.00 | 89 | 1016.7 |
| 20260905105022 | 48 | 0 | 0.0 | 0.0 | 0.00 | 0.19 | 0.00 | 89 | 1016.7 |
| 20260905104536 | 48 | 0 | 0.0 | 0.0 | 0.00 | 0.19 | 0.00 | 89 | 1016.6 |
| 20260905104019 | 48 | 0 | 0.0 | 0.0 | 0.00 | 0.19 | 0.00 | 89 | 1016.6 |
| 20260905103519 | 48 | 0 | 0.0 | 0.0 | 0.00 | 0.19 | 0.00 | 89 | 1016.6 |
| 20260905103041 | 48 | 0 | 0.0 | 0.0 | 0.00 | 0.19 | 0.00 | 89 | 1016.5 |
| 20260905102520 | 48 | 0 | 0.0 | 0.0 | 0.00 | 0.19 | 0.00 | 89 | 1016.5 |
| 20260905102017 | 48 | 0 | 0.0 | 0.0 | 0.00 | 0.19 | 0.00 | 89 | 1016.5 |
| 20260905101540 | 48 | 0 | 0.0 | 0.0 | 0.00 | 0.19 | 0.00 | 89 | 1016.3 |
| 20260905101019 | 48 | 0 | 0.0 | 0.0 | 0.00 | 0.19 | 0.00 | 89 | 1016.4 |
| 20260905100521 | 48 | 0 | 0.0 | 0.0 | 0.00 | 0.19 | 0.00 | 89 | 1016.5 |
| 20260905100042 | 48 | 0 | 0.0 | 0.0 | 0.00 | 0.19 | 0.00 | 89 | 1016.4 |
| 20260905095520 | 48 | 0 | 0.0 | 0.0 | 0.00 | 0.19 | 0.00 | 89 | 1016.4 |
| 20260905095021 | 48 | 0 | 0.0 | 0.0 | 0.00 | 0.19 | 0.00 | 89 | 1016.5 |
| 20260905094541 | 48 | 0 | 0.0 | 0.0 | 0.00 | 0.19 | 0.00 | 89 | 1016.5 |
| 20260905094022 | 49 | 0 | 0.0 | 0.0 | 0.00 | 0.19 | 0.00 | 89 | 1016.5 |
| 20260905093521 | 49 | 0 | 0.0 | 0.0 | 0.00 | 0.19 | 0.00 | 89 | 1016.5 |
| 20260905093038 | 49 | 0 | 0.0 | 0.0 | 0.00 | 0.19 | 0.00 | 89 | 1016.5 |
| 20260905092521 | 49 | 0 | 0.0 | 0.0 | 0.00 | 0.19 | 0.00 | 89 | 1016.6 |
| 20260905092025 | 49 | 0 | 0.0 | 0.0 | 0.00 | 0.19 | 0.00 | 89 | 1016.5 |
| 20260905091538 | 49 | 0 | 0.0 | 0.0 | 0.00 | 0.19 | 0.00 | 89 | 1016.5 |
| 20260905091021 | 49 | 0 | 0.0 | 0.0 | 0.00 | 0.19 | 0.00 | 89 | 1016.6 |
| 20260905090519 | 49 | 0 | 0.0 | 0.0 | 0.00 | 0.19 | 0.00 | 89 | 1016.6 |
| 20260905090047 | 49 | 0 | 0.0 | 0.0 | 0.00 | 0.19 | 0.00 | 89 | 1016.5 |
| 20260905085521 | 49 | 0 | 0.0 | 0.0 | 0.00 | 0.19 | 0.00 | 89 | 1016.4 |
| 20260905085019 | 50 | 0 | 0.0 | 0.0 | 0.00 | 0.19 | 0.00 | 89 | 1016.5 |
| 20260905084542 | 50 | 0 | 0.0 | 0.0 | 0.00 | 0.19 | 0.00 | 89 | 1016.5 |
| 20260905084021 | 50 | 0 | 0.0 | 0.0 | 0.00 | 0.19 | 0.00 | 89 | 1016.4 |
| 20260905083521 | 50 | 0 | 0.0 | 0.0 | 0.00 | 0.19 | 0.00 | 89 | 1016.4 |
| 20260905083041 | 50 | 0 | 0.0 | 0.0 | 0.00 | 0.19 | 0.00 | 89 | 1016.3 |
| 20260905082523 | 50 | 0 | 0.0 | 0.0 | 0.00 | 0.19 | 0.00 | 89 | 1016.3 |
| 20260905082021 | 50 | 0 | 0.0 | 0.0 | 0.00 | 0.19 | 0.00 | 89 | 1016.3 |
| 20260905081536 | 50 | 0 | 0.0 | 0.0 | 0.00 | 0.19 | 0.00 | 89 | 1016.3 |
| 20260905081021 | 51 | 0 | 0.0 | 0.0 | 0.00 | 0.19 | 0.00 | 89 | 1016.3 |
| 20260905080519 | 51 | 0 | 0.0 | 0.0 | 0.00 | 0.19 | 0.00 | 89 | 1016.3 |
| 20260905080038 | 51 | 0 | 0.0 | 0.0 | 0.00 | 0.19 | 0.00 | 89 | 1016.4 |
| 20260905075519 | 51 | 0 | 0.0 | 0.0 | 0.00 | 0.19 | 0.00 | 89 | 1016.4 |
| 20260905075021 | 51 | 0 | 0.0 | 0.0 | 0.00 | 0.19 | 0.00 | 89 | 1016.3 |
| 20260905074539 | 51 | 0 | 0.0 | 0.0 | 0.00 | 0.19 | 0.00 | 89 | 1016.2 |
| 20260905074021 | 51 | 0 | 0.0 | 0.0 | 0.00 | 0.19 | 0.00 | 89 | 1016.3 |
| 20260905073528 | 51 | 0 | 0.0 | 0.0 | 0.00 | 0.19 | 0.00 | 89 | 1016.4 |
| 20260905073045 | 52 | 0 | 0.0 | 0.0 | 0.00 | 0.19 | 0.00 | 89 | 1016.3 |
| 20260905072521 | 52 | 0 | 0.0 | 0.0 | 0.00 | 0.19 | 0.00 | 89 | 1016.2 |
| 20260905072025 | 52 | 0 | 0.0 | 0.0 | 0.00 | 0.19 | 0.00 | 89 | 1016.2 |
| 20260905071540 | 52 | 0 | 0.0 | 0.0 | 0.00 | 0.19 | 0.00 | 89 | 1016.3 |
| 20260905071020 | 52 | 0 | 0.0 | 0.0 | 0.00 | 0.19 | 0.00 | 89 | 1016.2 |
| 20260905070518 | 52 | 0 | 0.0 | 0.0 | 0.00 | 0.19 | 0.00 | 89 | 1016.2 |
| 20260905070047 | 52 | 0 | 0.0 | 0.0 | 0.00 | 0.19 | 0.00 | 89 | 1016.2 |
| 20260905065520 | 52 | 0 | 0.0 | 0.0 | 0.00 | 0.19 | 0.19 | 89 | 1016.0 |
| 20260905065021 | 52 | 0 | 0.0 | 0.0 | 0.00 | 0.19 | 0.19 | 89 | 1016.0 |
| 20260905064536 | 53 | 0 | 0.0 | 0.0 | 0.00 | 0.19 | 0.19 | 89 | 1015.9 |
| 20260905064025 | 53 | 0 | 0.0 | 0.0 | 0.00 | 0.19 | 0.19 | 89 | 1015.9 |
| 20260905063522 | 53 | 0 | 0.0 | 0.0 | 0.00 | 0.19 | 0.19 | 89 | 1015.9 |
| 20260905063037 | 53 | 0 | 0.0 | 0.0 | 0.00 | 0.19 | 0.19 | 89 | 1015.8 |
| 20260905062518 | 53 | 0 | 0.0 | 0.0 | 0.00 | 0.19 | 0.19 | 89 | 1015.7 |
| 20260905062020 | 53 | 0 | 0.0 | 0.0 | 0.00 | 0.19 | 0.19 | 89 | 1015.7 |
| 20260905061540 | 53 | 0 | 0.0 | 0.0 | 0.00 | 0.19 | 0.19 | 89 | 1015.6 |
| 20260905061017 | 53 | 0 | 0.0 | 0.0 | 0.00 | 0.19 | 0.19 | 89 | 1015.6 |
| 20260905060520 | 53 | 0 | 0.0 | 0.0 | 0.00 | 0.19 | 0.19 | 89 | 1015.7 |
| 20260905060038 | 53 | 0 | 0.0 | 0.0 | 0.00 | 0.19 | 0.19 | 89 | 1015.7 |
| 20260905055522 | 53 | 0 | 0.0 | 0.0 | 0.00 | 0.19 | 0.19 | 89 | 1015.7 |
| 20260905055018 | 53 | 0 | 0.0 | 0.0 | 0.00 | 0.19 | 0.19 | 89 | 1015.7 |
| 20260905054539 | 53 | 0 | 0.0 | 0.0 | 0.00 | 0.19 | 0.19 | 89 | 1015.6 |
| 20260905054022 | 54 | 0 | 0.0 | 0.0 | 0.00 | 0.19 | 0.19 | 89 | 1015.6 |
| 20260905053520 | 54 | 0 | 0.0 | 0.0 | 0.00 | 0.19 | 0.19 | 89 | 1015.6 |
| 20260905053039 | 54 | 0 | 0.0 | 0.0 | 0.00 | 0.19 | 0.19 | 89 | 1015.6 |
| 20260905052520 | 54 | 0 | 0.0 | 0.0 | 0.00 | 0.19 | 0.19 | 89 | 1015.7 |
| 20260905052024 | 54 | 0 | 0.0 | 0.0 | 0.00 | 0.19 | 0.19 | 89 | 1015.5 |
| 20260905051535 | 54 | 0 | 0.0 | 0.0 | 0.00 | 0.19 | 0.19 | 89 | 1015.6 |
| 20260905051020 | 54 | 0 | 0.0 | 0.0 | 0.00 | 0.19 | 0.19 | 89 | 1015.6 |
| 20260905050520 | 54 | 0 | 0.0 | 0.0 | 0.00 | 0.19 | 0.19 | 89 | 1015.4 |
| 20260905050040 | 54 | 0 | 0.0 | 0.0 | 0.00 | 0.19 | 0.19 | 89 | 1015.4 |
| 20260905045518 | 55 | 0 | 0.0 | 0.0 | 0.00 | 0.19 | 0.19 | 89 | 1015.5 |
| 20260905045017 | 55 | 0 | 0.0 | 1.0 | 0.00 | 0.19 | 0.19 | 89 | 1015.6 |
| 20260905044538 | 55 | 0 | 0.0 | 1.0 | 0.00 | 0.19 | 0.19 | 88 | 1015.6 |
| 20260905044020 | 55 | 0 | 0.0 | 2.0 | 0.00 | 0.19 | 0.19 | 88 | 1015.6 |
| 20260905043521 | 55 | 0 | 0.0 | 2.0 | 0.00 | 0.19 | 0.19 | 88 | 1015.5 |
| 20260905043037 | 55 | 0 | 0.0 | 2.0 | 0.00 | 0.19 | 0.19 | 88 | 1015.5 |
| 20260905042524 | 55 | 0 | 0.0 | 2.0 | 0.00 | 0.19 | 0.19 | 88 | 1015.4 |
| 20260905042020 | 55 | 0 | 0.0 | 2.0 | 0.00 | 0.19 | 0.19 | 88 | 1015.4 |
| 20260905041547 | 55 | 0 | 0.0 | 0.0 | 0.00 | 0.19 | 0.19 | 88 | 1015.3 |
| 20260905041020 | 55 | 0 | 0.0 | 0.0 | 0.00 | 0.19 | 0.19 | 88 | 1015.3 |
| 20260905040523 | 56 | 0 | 0.0 | 1.0 | 0.01 | 0.19 | 0.19 | 88 | 1015.3 |
| 20260905040037 | 56 | 0 | 0.0 | 1.0 | 0.01 | 0.19 | 0.19 | 88 | 1015.3 |
| 20260905035524 | 56 | 0 | 0.0 | 1.0 | 0.02 | 0.19 | 0.19 | 88 | 1015.3 |
| 20260905035018 | 56 | 0 | 0.0 | 0.0 | 0.03 | 0.19 | 0.19 | 88 | 1015.2 |
| 20260905034546 | 56 | 0 | 0.0 | 0.0 | 0.04 | 0.19 | 0.19 | 88 | 1015.1 |
| 20260905034019 | 56 | 0 | 0.0 | 0.0 | 0.06 | 0.19 | 0.19 | 88 | 1015.2 |
| 20260905033520 | 56 | 0 | 0.0 | 2.0 | 0.06 | 0.19 | 0.19 | 88 | 1015.1 |
| 20260905033041 | 56 | 0 | 0.0 | 2.0 | 0.07 | 0.19 | 0.19 | 88 | 1015.2 |
| 20260905032520 | 56 | 292 | 1.0 | 2.0 | 0.07 | 0.19 | 0.19 | 87 | 1015.2 |
| 20260905032021 | 57 | 0 | 0.0 | 2.0 | 0.09 | 0.19 | 0.19 | 87 | 1015.3 |
| 20260905031538 | 57 | 0 | 0.0 | 2.0 | 0.12 | 0.19 | 0.19 | 87 | 1015.2 |
| 20260905031024 | 57 | 0 | 0.0 | 2.0 | 0.14 | 0.19 | 0.19 | 87 | 1015.1 |
| 20260905030519 | 57 | 0 | 0.0 | 2.0 | 0.15 | 0.18 | 0.18 | 87 | 1015.1 |
| 20260905030043 | 57 | 324 | 0.0 | 2.0 | 0.17 | 0.18 | 0.18 | 87 | 1015.2 |
| 20260905025519 | 57 | 0 | 0.0 | 2.0 | 0.17 | 0.17 | 0.17 | 87 | 1015.2 |